Time,TemperatureF,DewpointF,PressureIn,WindDirection,WindDirectionDegrees,WindSpeedMPH,WindSpeedGustMPH,Humidity,HourlyPrecipIn,Conditions,Clouds,dailyrainin,SoftwareType,DateUTC
2013-08-10 00:00:00,60.8,55.4,29.95,South,180,0.2,1.1,82,0.00,,,0.00,WUHU216HW,2013-08-10 07:00:00,
2013-08-10 00:05:00,60.7,55.2,29.95,South,180,0.4,1.1,82,0.00,,,0.00,WUHU216HW,2013-08-10 07:05:00,
2013-08-10 00:10:00,60.7,55.2,29.95,South,180,1.8,1.8,82,0.00,,,0.00,WUHU216HW,2013-08-10 07:10:00,
2013-08-10 00:15:00,60.7,55.2,29.95,SSW,203,0.0,1.8,82,0.00,,,0.00,WUHU216HW,2013-08-10 07:15:00,
2013-08-10 00:20:00,60.8,55.7,29.95,SW,225,0.4,1.1,83,0.00,,,0.00,WUHU216HW,2013-08-10 07:20:00,
2013-08-10 00:25:00,60.8,55.7,29.95,SW,225,0.2,1.1,83,0.00,,,0.00,WUHU216HW,2013-08-10 07:25:00,
2013-08-10 00:30:00,60.8,55.7,29.95,WSW,248,0.4,1.8,83,0.00,,,0.00,WUHU216HW,2013-08-10 07:30:00,
2013-08-10 00:35:00,61.0,55.9,29.95,WNW,293,0.4,1.8,83,0.00,,,0.00,WUHU216HW,2013-08-10 07:35:00,
2013-08-10 00:40:00,60.8,55.7,29.95,West,270,0.2,1.3,83,0.00,,,0.00,WUHU216HW,2013-08-10 07:40:00,
2013-08-10 00:45:00,60.7,55.8,29.95,West,270,1.1,1.8,84,0.00,,,0.00,WUHU216HW,2013-08-10 07:45:00,
2013-08-10 00:50:00,60.5,55.6,29.95,West,270,1.1,1.8,84,0.00,,,0.00,WUHU216HW,2013-08-10 07:50:00,
2013-08-10 00:55:00,60.3,55.8,29.95,West,270,0.4,1.6,85,0.00,,,0.00,WUHU216HW,2013-08-10 07:55:00,
2013-08-10 01:00:00,60.3,55.8,29.95,WNW,293,0.4,1.6,85,0.00,,,0.00,WUHU216HW,2013-08-10 08:00:00,
2013-08-10 01:06:00,60.3,55.8,29.95,NW,315,0.2,1.3,85,0.00,,,0.00,WUHU216HW,2013-08-10 08:06:00,
2013-08-10 01:11:00,60.1,56.0,29.95,NNW,338,0.2,1.3,86,0.00,,,0.00,WUHU216HW,2013-08-10 08:11:00,
2013-08-10 01:16:00,59.8,55.6,29.95,SW,225,1.1,1.3,86,0.00,,,0.00,WUHU216HW,2013-08-10 08:16:00,
2013-08-10 01:21:00,59.9,55.8,29.95,WNW,293,1.1,3.1,86,0.00,,,0.00,WUHU216HW,2013-08-10 08:21:00,
2013-08-10 01:26:00,60.1,55.6,29.95,WNW,293,0.2,3.1,85,0.00,,,0.00,WUHU216HW,2013-08-10 08:26:00,
2013-08-10 01:31:00,60.1,55.6,29.96,WSW,248,0.7,0.9,85,0.00,,,0.00,WUHU216HW,2013-08-10 08:31:00,
2013-08-10 01:36:00,60.1,55.6,29.95,NNW,338,1.8,1.8,85,0.00,,,0.00,WUHU216HW,2013-08-10 08:36:00,
2013-08-10 01:41:00,60.3,55.8,29.95,West,270,0.7,1.8,85,0.00,,,0.00,WUHU216HW,2013-08-10 08:41:00,
2013-08-10 01:46:00,60.3,55.8,29.95,West,270,0.4,1.1,85,0.00,,,0.00,WUHU216HW,2013-08-10 08:46:00,
2013-08-10 01:51:00,60.5,55.6,29.95,West,270,0.9,1.1,84,0.00,,,0.00,WUHU216HW,2013-08-10 08:51:00,
2013-08-10 01:56:00,60.5,55.6,29.95,West,270,1.1,2.5,84,0.00,,,0.00,WUHU216HW,2013-08-10 08:56:00,
2013-08-10 02:01:00,60.5,55.6,29.95,West,270,0.7,2.5,84,0.00,,,0.00,WUHU216HW,2013-08-10 09:01:00,
2013-08-10 02:06:00,60.3,55.4,29.95,SW,225,0.4,1.8,84,0.00,,,0.00,WUHU216HW,2013-08-10 09:06:00,
2013-08-10 02:11:00,60.3,55.4,29.95,SW,225,0.9,1.8,84,0.00,,,0.00,WUHU216HW,2013-08-10 09:11:00,
2013-08-10 02:17:00,60.3,55.4,29.95,NNW,338,1.1,2.2,84,0.00,,,0.00,WUHU216HW,2013-08-10 09:17:00,
2013-08-10 02:22:00,59.8,55.3,29.95,NNW,338,0.4,2.2,85,0.00,,,0.00,WUHU216HW,2013-08-10 09:22:00,
2013-08-10 02:27:00,59.4,55.3,29.95,NW,315,0.7,1.8,86,0.00,,,0.00,WUHU216HW,2013-08-10 09:27:00,
2013-08-10 02:32:00,59.0,54.9,29.95,NW,315,0.9,1.1,86,0.00,,,0.00,WUHU216HW,2013-08-10 09:32:00,
2013-08-10 02:37:00,59.0,54.9,29.95,West,270,0.4,1.1,86,0.00,,,0.00,WUHU216HW,2013-08-10 09:37:00,
2013-08-10 02:42:00,59.4,55.3,29.95,WNW,293,0.4,2.0,86,0.00,,,0.00,WUHU216HW,2013-08-10 09:42:00,
2013-08-10 02:47:00,59.4,54.9,29.95,NW,315,0.4,2.5,85,0.00,,,0.00,WUHU216HW,2013-08-10 09:47:00,
2013-08-10 02:52:00,59.4,54.9,29.95,WNW,293,0.9,2.5,85,0.00,,,0.00,WUHU216HW,2013-08-10 09:52:00,
2013-08-10 02:57:00,59.8,55.3,29.95,WSW,248,1.1,2.2,85,0.00,,,0.00,WUHU216HW,2013-08-10 09:57:00,
2013-08-10 03:02:00,59.9,55.4,29.95,WNW,293,0.4,1.6,85,0.00,,,0.00,WUHU216HW,2013-08-10 10:02:00,
2013-08-10 03:07:00,59.9,55.1,29.95,SW,225,1.1,1.8,84,0.00,,,0.00,WUHU216HW,2013-08-10 10:07:00,
2013-08-10 03:12:00,59.8,54.9,29.95,WSW,248,0.9,1.8,84,0.00,,,0.00,WUHU216HW,2013-08-10 10:12:00,
2013-08-10 03:17:00,59.9,55.4,29.95,WSW,248,0.4,1.8,85,0.00,,,0.00,WUHU216HW,2013-08-10 10:17:00,
2013-08-10 03:23:00,59.8,54.9,29.95,West,270,1.8,1.8,84,0.00,,,0.00,WUHU216HW,2013-08-10 10:23:00,
2013-08-10 03:28:00,59.6,54.7,29.95,West,270,0.7,1.8,84,0.00,,,0.00,WUHU216HW,2013-08-10 10:28:00,
2013-08-10 03:33:00,59.6,54.7,29.95,SW,225,0.4,0.9,84,0.00,,,0.00,WUHU216HW,2013-08-10 10:33:00,
2013-08-10 03:38:00,59.6,54.7,29.95,SW,225,0.4,1.6,84,0.00,,,0.00,WUHU216HW,2013-08-10 10:38:00,
2013-08-10 03:43:00,59.6,54.7,29.95,WSW,248,1.1,1.6,84,0.00,,,0.00,WUHU216HW,2013-08-10 10:43:00,
2013-08-10 03:48:00,59.6,54.7,29.95,NW,315,0.4,1.6,84,0.00,,,0.00,WUHU216HW,2013-08-10 10:48:00,
2013-08-10 03:53:00,59.6,54.7,29.95,West,270,1.1,1.1,84,0.00,,,0.00,WUHU216HW,2013-08-10 10:53:00,
2013-08-10 03:58:00,59.4,54.5,29.95,WSW,248,1.6,1.6,84,0.00,,,0.00,WUHU216HW,2013-08-10 10:58:00,
2013-08-10 04:03:00,59.4,54.5,29.95,West,270,0.4,1.6,84,0.00,,,0.00,WUHU216HW,2013-08-10 11:03:00,
2013-08-10 04:08:00,59.6,54.7,29.95,WSW,248,0.7,0.9,84,0.00,,,0.00,WUHU216HW,2013-08-10 11:08:00,
2013-08-10 04:13:00,59.4,54.5,29.95,WNW,293,0.4,1.3,84,0.00,,,0.00,WUHU216HW,2013-08-10 11:13:00,
2013-08-10 04:18:00,59.6,54.5,29.95,West,270,0.0,1.3,83,0.00,,,0.00,WUHU216HW,2013-08-10 11:18:00,
2013-08-10 04:23:00,59.4,54.3,29.95,West,270,0.4,1.1,83,0.00,,,0.00,WUHU216HW,2013-08-10 11:23:00,
2013-08-10 04:28:00,59.4,54.3,29.95,West,270,0.4,1.1,83,0.00,,,0.00,WUHU216HW,2013-08-10 11:28:00,
2013-08-10 04:34:00,59.4,54.3,29.94,West,270,0.9,1.1,83,0.00,,,0.00,WUHU216HW,2013-08-10 11:34:00,
2013-08-10 04:39:00,59.4,54.3,29.94,WSW,248,0.0,0.9,83,0.00,,,0.00,WUHU216HW,2013-08-10 11:39:00,
2013-08-10 04:44:00,59.2,54.1,29.95,WSW,248,0.4,1.1,83,0.00,,,0.00,WUHU216HW,2013-08-10 11:44:00,
2013-08-10 04:49:00,59.0,53.9,29.94,SW,225,0.0,1.1,83,0.00,,,0.00,WUHU216HW,2013-08-10 11:49:00,
2013-08-10 04:54:00,59.0,53.9,29.95,SW,225,0.0,0.7,83,0.00,,,0.00,WUHU216HW,2013-08-10 11:54:00,
2013-08-10 04:59:00,59.0,53.9,29.94,West,270,0.4,0.4,83,0.00,,,0.00,WUHU216HW,2013-08-10 11:59:00,
2013-08-10 05:04:00,59.0,53.9,29.94,WSW,248,0.4,0.4,83,0.00,,,0.00,WUHU216HW,2013-08-10 12:04:00,
2013-08-10 05:09:00,59.0,53.9,29.95,SE,135,0.4,0.7,83,0.00,,,0.00,WUHU216HW,2013-08-10 12:09:00,
2013-08-10 05:14:00,58.9,53.7,29.95,SSW,203,0.9,0.9,83,0.00,,,0.00,WUHU216HW,2013-08-10 12:14:00,
2013-08-10 05:19:00,58.9,53.7,29.95,SW,225,0.2,0.9,83,0.00,,,0.00,WUHU216HW,2013-08-10 12:19:00,
2013-08-10 05:24:00,58.9,53.7,29.95,SW,225,0.4,0.9,83,0.00,,,0.00,WUHU216HW,2013-08-10 12:24:00,
2013-08-10 05:30:00,58.7,53.6,29.95,SW,225,0.0,0.9,83,0.00,,,0.00,WUHU216HW,2013-08-10 12:30:00,
2013-08-10 05:35:00,58.7,53.8,29.95,SW,225,0.0,0.7,84,0.00,,,0.00,WUHU216HW,2013-08-10 12:35:00,
2013-08-10 05:40:00,58.7,53.8,29.95,SSW,203,0.0,0.4,84,0.00,,,0.00,WUHU216HW,2013-08-10 12:40:00,
2013-08-10 05:45:00,58.7,53.8,29.95,SSE,158,0.4,1.1,84,0.00,,,0.00,WUHU216HW,2013-08-10 12:45:00,
2013-08-10 05:50:00,58.7,53.8,29.95,SW,225,0.7,1.1,84,0.00,,,0.00,WUHU216HW,2013-08-10 12:50:00,
2013-08-10 05:55:00,58.7,53.8,29.95,SW,225,0.0,0.7,84,0.00,,,0.00,WUHU216HW,2013-08-10 12:55:00,
2013-08-10 06:00:00,58.7,53.8,29.96,SSE,158,1.6,1.6,84,0.00,,,0.00,WUHU216HW,2013-08-10 13:00:00,
2013-08-10 06:05:00,58.7,53.8,29.95,SSE,158,0.0,2.2,84,0.00,,,0.00,WUHU216HW,2013-08-10 13:05:00,
2013-08-10 06:10:00,58.7,53.8,29.95,ESE,113,0.4,2.2,84,0.00,,,0.00,WUHU216HW,2013-08-10 13:10:00,
2013-08-10 06:15:00,58.7,53.8,29.95,ESE,113,0.0,1.1,84,0.00,,,0.00,WUHU216HW,2013-08-10 13:15:00,
2013-08-10 06:20:00,58.9,54.0,29.96,ESE,113,0.2,1.1,84,0.00,,,0.00,WUHU216HW,2013-08-10 13:20:00,
2013-08-10 06:25:00,58.9,54.4,29.96,ESE,113,0.0,0.4,85,0.00,,,0.00,WUHU216HW,2013-08-10 13:25:00,
2013-08-10 06:30:00,59.0,54.5,29.96,SW,225,0.0,1.8,85,0.00,,,0.00,WUHU216HW,2013-08-10 13:30:00,
2013-08-10 06:35:00,58.9,54.4,29.96,SW,225,0.2,1.8,85,0.00,,,0.00,WUHU216HW,2013-08-10 13:35:00,
2013-08-10 06:41:00,58.9,54.4,29.96,SW,225,0.0,0.2,85,0.00,,,0.00,WUHU216HW,2013-08-10 13:41:00,
2013-08-10 06:46:00,58.9,54.4,29.96,SW,225,0.7,0.7,85,0.00,,,0.00,WUHU216HW,2013-08-10 13:46:00,
2013-08-10 06:51:00,58.9,54.4,29.96,SW,225,0.0,0.7,85,0.00,,,0.00,WUHU216HW,2013-08-10 13:51:00,
2013-08-10 06:56:00,58.9,54.4,29.96,SW,225,0.9,0.9,85,0.00,,,0.00,WUHU216HW,2013-08-10 13:56:00,
2013-08-10 07:01:00,58.9,54.4,29.97,SSW,203,0.9,0.9,85,0.00,,,0.00,WUHU216HW,2013-08-10 14:01:00,
2013-08-10 07:06:00,58.9,54.4,29.97,SSE,158,0.0,1.1,85,0.00,,,0.00,WUHU216HW,2013-08-10 14:06:00,
2013-08-10 07:11:00,58.9,54.4,29.97,WSW,248,1.1,1.1,85,0.00,,,0.00,WUHU216HW,2013-08-10 14:11:00,
2013-08-10 07:16:00,58.9,54.7,29.97,WSW,248,1.1,1.1,86,0.00,,,0.00,WUHU216HW,2013-08-10 14:16:00,
2013-08-10 07:21:00,58.9,54.7,29.97,WSW,248,0.2,1.1,86,0.00,,,0.00,WUHU216HW,2013-08-10 14:21:00,
2013-08-10 07:26:00,58.9,54.7,29.97,West,270,0.0,0.4,86,0.00,,,0.00,WUHU216HW,2013-08-10 14:26:00,
2013-08-10 07:31:00,59.0,55.2,29.97,WSW,248,0.4,1.6,87,0.00,,,0.00,WUHU216HW,2013-08-10 14:31:00,
2013-08-10 07:37:00,59.0,54.9,29.97,SSW,203,0.0,1.6,86,0.00,,,0.00,WUHU216HW,2013-08-10 14:37:00,
2013-08-10 07:42:00,59.0,54.9,29.97,SW,225,0.2,1.1,86,0.00,,,0.00,WUHU216HW,2013-08-10 14:42:00,
2013-08-10 07:47:00,59.2,55.1,29.98,SW,225,1.1,1.1,86,0.00,,,0.00,WUHU216HW,2013-08-10 14:47:00,
2013-08-10 07:52:00,59.2,55.1,29.98,SSW,203,0.2,1.1,86,0.00,,,0.00,WUHU216HW,2013-08-10 14:52:00,
2013-08-10 07:57:00,59.2,55.1,29.98,SE,135,0.0,0.9,86,0.00,,,0.00,WUHU216HW,2013-08-10 14:57:00,
2013-08-10 08:02:00,59.4,54.9,29.98,SW,225,0.0,1.1,85,0.00,,,0.00,WUHU216HW,2013-08-10 15:02:00,
2013-08-10 08:07:00,59.6,55.1,29.98,SW,225,0.0,1.1,85,0.00,,,0.00,WUHU216HW,2013-08-10 15:07:00,
2013-08-10 08:12:00,59.8,55.3,29.98,SW,225,1.1,1.1,85,0.00,,,0.00,WUHU216HW,2013-08-10 15:12:00,
2013-08-10 08:17:00,59.8,55.3,29.98,South,180,1.6,1.8,85,0.00,,,0.00,WUHU216HW,2013-08-10 15:17:00,
2013-08-10 08:22:00,59.9,55.4,29.98,South,180,0.4,1.8,85,0.00,,,0.00,WUHU216HW,2013-08-10 15:22:00,
2013-08-10 08:27:00,59.9,55.4,29.98,SW,225,0.7,1.1,85,0.00,,,0.00,WUHU216HW,2013-08-10 15:27:00,
2013-08-10 08:32:00,60.1,55.6,29.98,WNW,293,0.0,0.7,85,0.00,,,0.00,WUHU216HW,2013-08-10 15:32:00,
2013-08-10 08:37:00,60.1,55.3,29.98,WSW,248,0.4,0.7,84,0.00,,,0.00,WUHU216HW,2013-08-10 15:37:00,
2013-08-10 08:42:00,60.3,55.4,29.98,SE,135,0.2,2.2,84,0.00,,,0.00,WUHU216HW,2013-08-10 15:42:00,
2013-08-10 08:48:00,60.5,55.6,29.98,ESE,113,1.8,2.2,84,0.00,,,0.00,WUHU216HW,2013-08-10 15:48:00,
2013-08-10 08:53:00,60.7,55.8,29.99,ESE,113,0.7,1.8,84,0.00,,,0.00,WUHU216HW,2013-08-10 15:53:00,
2013-08-10 08:58:00,60.8,55.7,29.99,NW,315,0.4,1.1,83,0.00,,,0.00,WUHU216HW,2013-08-10 15:58:00,
2013-08-10 09:03:00,60.8,55.7,29.99,WSW,248,0.4,0.9,83,0.00,,,0.00,WUHU216HW,2013-08-10 16:03:00,
2013-08-10 09:08:00,60.8,55.7,29.99,SE,135,0.0,1.3,83,0.00,,,0.00,WUHU216HW,2013-08-10 16:08:00,
2013-08-10 09:13:00,61.0,55.9,29.99,SW,225,0.4,2.2,83,0.00,,,0.00,WUHU216HW,2013-08-10 16:13:00,
2013-08-10 09:18:00,61.2,56.1,29.99,SW,225,2.5,2.5,83,0.00,,,0.00,WUHU216HW,2013-08-10 16:18:00,
2013-08-10 09:23:00,61.2,56.1,29.99,WSW,248,0.4,2.5,83,0.00,,,0.00,WUHU216HW,2013-08-10 16:23:00,
2013-08-10 09:28:00,61.4,55.9,29.99,WNW,293,0.4,1.8,82,0.00,,,0.00,WUHU216HW,2013-08-10 16:28:00,
2013-08-10 09:33:00,61.4,55.5,29.99,SW,225,0.7,1.8,81,0.00,,,0.00,WUHU216HW,2013-08-10 16:33:00,
2013-08-10 09:38:00,61.6,56.1,29.99,SW,225,0.4,1.6,82,0.00,,,0.00,WUHU216HW,2013-08-10 16:38:00,
2013-08-10 09:43:00,61.6,55.7,29.99,SE,135,1.3,1.3,81,0.00,,,0.00,WUHU216HW,2013-08-10 16:43:00,
2013-08-10 09:49:00,61.9,56.1,29.99,West,270,0.4,1.3,81,0.00,,,0.00,WUHU216HW,2013-08-10 16:49:00,
2013-08-10 09:54:00,62.1,56.2,29.99,WNW,293,0.9,1.1,81,0.00,,,0.00,WUHU216HW,2013-08-10 16:54:00,
2013-08-10 09:59:00,62.1,56.2,29.99,SW,225,1.1,1.3,81,0.00,,,0.00,WUHU216HW,2013-08-10 16:59:00,
2013-08-10 10:04:00,62.3,56.3,29.99,SW,225,0.4,1.3,81,0.00,,,0.00,WUHU216HW,2013-08-10 17:04:00,
2013-08-10 10:09:00,62.6,56.3,30.00,SW,225,2.0,2.0,80,0.00,,,0.00,WUHU216HW,2013-08-10 17:09:00,
2013-08-10 10:14:00,62.6,56.3,29.99,West,270,1.1,2.0,80,0.00,,,0.00,WUHU216HW,2013-08-10 17:14:00,
2013-08-10 10:19:00,63.0,56.3,30.00,NW,315,0.4,1.6,79,0.00,,,0.00,WUHU216HW,2013-08-10 17:19:00,
2013-08-10 10:24:00,63.0,56.3,30.00,SW,225,0.9,1.6,79,0.00,,,0.00,WUHU216HW,2013-08-10 17:24:00,
2013-08-10 10:29:00,63.0,56.0,30.00,West,270,1.1,1.8,78,0.00,,,0.00,WUHU216HW,2013-08-10 17:29:00,
2013-08-10 10:34:00,63.4,56.7,30.00,West,270,3.1,3.1,79,0.00,,,0.00,WUHU216HW,2013-08-10 17:34:00,
2013-08-10 10:39:00,63.7,57.1,30.00,WSW,248,0.4,3.1,79,0.00,,,0.00,WUHU216HW,2013-08-10 17:39:00,
2013-08-10 10:44:00,64.1,57.4,30.00,NW,315,0.4,1.8,79,0.00,,,0.00,WUHU216HW,2013-08-10 17:44:00,
2013-08-10 10:49:00,64.3,57.6,30.00,North,0,0.0,1.8,79,0.00,,,0.00,WUHU216HW,2013-08-10 17:49:00,
2013-08-10 10:54:00,64.8,58.2,30.00,SSW,203,0.4,3.4,79,0.00,,,0.00,WUHU216HW,2013-08-10 17:54:00,
2013-08-10 11:00:00,65.0,56.9,30.00,WNW,293,0.4,3.4,75,0.00,,,0.00,WUHU216HW,2013-08-10 18:00:00,
2013-08-10 11:05:00,65.0,57.6,30.00,NNE,23,0.4,2.5,77,0.00,,,0.00,WUHU216HW,2013-08-10 18:05:00,
2013-08-10 11:10:00,65.5,57.0,30.00,NW,315,2.2,2.5,74,0.00,,,0.00,WUHU216HW,2013-08-10 18:10:00,
2013-08-10 11:15:00,65.3,57.2,30.00,NNW,338,0.4,2.5,75,0.00,,,0.00,WUHU216HW,2013-08-10 18:15:00,
2013-08-10 11:20:00,65.5,57.3,30.00,WSW,248,0.4,2.5,75,0.00,,,0.00,WUHU216HW,2013-08-10 18:20:00,
2013-08-10 11:25:00,66.4,57.9,30.00,NW,315,0.9,1.8,74,0.00,,,0.00,WUHU216HW,2013-08-10 18:25:00,
2013-08-10 11:30:00,66.4,57.5,30.00,NNW,338,0.4,1.8,73,0.00,,,0.00,WUHU216HW,2013-08-10 18:30:00,
2013-08-10 11:35:00,66.2,57.3,29.99,NNW,338,2.2,2.2,73,0.00,,,0.00,WUHU216HW,2013-08-10 18:35:00,
2013-08-10 11:40:00,66.2,57.3,29.99,North,0,1.1,2.5,73,0.00,,,0.00,WUHU216HW,2013-08-10 18:40:00,
2013-08-10 11:45:00,66.6,58.1,29.99,NNW,338,2.5,2.5,74,0.00,,,0.00,WUHU216HW,2013-08-10 18:45:00,
2013-08-10 11:50:00,66.4,57.9,29.99,NNW,338,2.5,2.5,74,0.00,,,0.00,WUHU216HW,2013-08-10 18:50:00,
2013-08-10 11:55:00,66.4,57.5,29.99,NNW,338,1.8,2.5,73,0.00,,,0.00,WUHU216HW,2013-08-10 18:55:00,
2013-08-10 12:00:00,67.0,58.4,29.99,WSW,248,0.7,3.1,74,0.00,,,0.00,WUHU216HW,2013-08-10 19:00:00,
2013-08-10 12:06:00,67.0,58.4,29.99,WNW,293,1.1,3.4,74,0.00,,,0.00,WUHU216HW,2013-08-10 19:06:00,
2013-08-10 12:11:00,66.8,58.2,29.99,NW,315,2.0,3.4,74,0.00,,,0.00,WUHU216HW,2013-08-10 19:11:00,
2013-08-10 12:16:00,67.1,57.8,29.99,West,270,1.8,2.5,72,0.00,,,0.00,WUHU216HW,2013-08-10 19:16:00,
2013-08-10 12:21:00,67.9,58.5,29.99,NW,315,0.7,2.0,72,0.00,,,0.00,WUHU216HW,2013-08-10 19:21:00,
2013-08-10 12:26:00,68.0,58.3,29.99,NNW,338,0.4,2.5,71,0.00,,,0.00,WUHU216HW,2013-08-10 19:26:00,
2013-08-10 12:31:00,68.4,58.7,29.99,West,270,0.9,2.5,71,0.00,,,0.00,WUHU216HW,2013-08-10 19:31:00,
2013-08-10 12:36:00,68.8,58.1,29.99,SSW,203,1.3,2.5,69,0.00,,,0.00,WUHU216HW,2013-08-10 19:36:00,
2013-08-10 12:41:00,69.1,58.1,29.99,West,270,2.5,3.4,68,0.00,,,0.00,WUHU216HW,2013-08-10 19:41:00,
2013-08-10 12:46:00,69.7,58.6,29.98,NW,315,1.3,3.4,68,0.00,,,0.00,WUHU216HW,2013-08-10 19:46:00,
2013-08-10 12:51:00,69.5,57.6,29.98,WNW,293,0.7,2.2,66,0.00,,,0.00,WUHU216HW,2013-08-10 19:51:00,
2013-08-10 12:57:00,69.5,57.6,29.98,WNW,293,1.6,2.2,66,0.00,,,0.00,WUHU216HW,2013-08-10 19:57:00,
2013-08-10 13:02:00,69.7,57.8,29.98,NNW,338,0.7,1.8,66,0.00,,,0.00,WUHU216HW,2013-08-10 20:02:00,
2013-08-10 13:07:00,70.4,58.4,29.98,WNW,293,1.1,2.9,66,0.00,,,0.00,WUHU216HW,2013-08-10 20:07:00,
2013-08-10 13:12:00,71.1,59.6,29.98,SW,225,1.3,2.9,67,0.00,,,0.00,WUHU216HW,2013-08-10 20:12:00,
2013-08-10 13:17:00,71.8,59.0,29.98,West,270,0.9,1.3,64,0.00,,,0.00,WUHU216HW,2013-08-10 20:17:00,
2013-08-10 13:22:00,72.0,59.1,29.98,WNW,293,0.4,2.2,64,0.00,,,0.00,WUHU216HW,2013-08-10 20:22:00,
2013-08-10 13:27:00,72.4,58.6,29.98,North,0,1.8,2.2,62,0.00,,,0.00,WUHU216HW,2013-08-10 20:27:00,
2013-08-10 13:32:00,72.0,58.2,29.98,SW,225,3.8,3.8,62,0.00,,,0.00,WUHU216HW,2013-08-10 20:32:00,
2013-08-10 13:37:00,72.9,59.5,29.97,WSW,248,3.1,3.8,63,0.00,,,0.00,WUHU216HW,2013-08-10 20:37:00,
2013-08-10 13:42:00,73.8,60.0,29.97,SSW,203,2.7,3.6,62,0.00,,,0.00,WUHU216HW,2013-08-10 20:42:00,
2013-08-10 13:47:00,74.5,60.2,29.97,SE,135,3.4,3.6,61,0.00,,,0.00,WUHU216HW,2013-08-10 20:47:00,
2013-08-10 13:52:00,75.2,60.5,29.97,West,270,2.2,3.4,60,0.00,,,0.00,WUHU216HW,2013-08-10 20:52:00,
2013-08-10 13:57:00,74.5,59.2,29.97,NNW,338,1.8,2.7,59,0.00,,,0.00,WUHU216HW,2013-08-10 20:57:00,
2013-08-10 14:03:00,74.2,60.3,29.97,WSW,248,1.1,3.1,62,0.00,,,0.00,WUHU216HW,2013-08-10 21:03:00,
2013-08-10 14:08:00,74.7,59.9,29.97,WSW,248,2.7,4.0,60,0.00,,,0.00,WUHU216HW,2013-08-10 21:08:00,
2013-08-10 14:13:00,74.5,58.8,29.97,SW,225,2.0,3.4,58,0.00,,,0.00,WUHU216HW,2013-08-10 21:13:00,
2013-08-10 14:18:00,74.7,58.0,29.97,NW,315,2.0,2.7,56,0.00,,,0.00,WUHU216HW,2013-08-10 21:18:00,
2013-08-10 14:23:00,74.7,59.0,29.97,NW,315,1.8,2.7,58,0.00,,,0.00,WUHU216HW,2013-08-10 21:23:00,
2013-08-10 14:28:00,75.1,58.3,29.97,SW,225,2.0,2.7,56,0.00,,,0.00,WUHU216HW,2013-08-10 21:28:00,
2013-08-10 14:33:00,75.2,59.0,29.97,WSW,248,2.2,2.7,57,0.00,,,0.00,WUHU216HW,2013-08-10 21:33:00,
2013-08-10 14:38:00,75.2,59.5,29.97,SW,225,3.4,3.4,58,0.00,,,0.00,WUHU216HW,2013-08-10 21:38:00,
2013-08-10 14:43:00,74.9,60.6,29.97,West,270,1.8,3.4,61,0.00,,,0.00,WUHU216HW,2013-08-10 21:43:00,
2013-08-10 14:48:00,75.4,60.1,29.97,NW,315,1.1,3.1,59,0.00,,,0.00,WUHU216HW,2013-08-10 21:48:00,
2013-08-10 14:53:00,75.8,59.9,29.97,NNW,338,3.1,3.1,58,0.00,,,0.00,WUHU216HW,2013-08-10 21:53:00,
2013-08-10 14:58:00,76.3,59.9,29.96,NNW,338,1.1,5.4,57,0.00,,,0.00,WUHU216HW,2013-08-10 21:58:00,
2013-08-10 15:03:00,75.6,59.3,29.96,NW,315,1.1,5.4,57,0.00,,,0.00,WUHU216HW,2013-08-10 22:03:00,
2013-08-10 15:09:00,75.6,59.3,29.96,WSW,248,2.5,3.6,57,0.00,,,0.00,WUHU216HW,2013-08-10 22:09:00,
2013-08-10 15:14:00,75.8,59.5,29.96,West,270,4.3,4.3,57,0.00,,,0.00,WUHU216HW,2013-08-10 22:14:00,
2013-08-10 15:19:00,76.0,59.6,29.96,North,0,1.1,4.3,57,0.00,,,0.00,WUHU216HW,2013-08-10 22:19:00,
2013-08-10 15:24:00,75.8,59.0,29.96,North,0,1.1,3.4,56,0.00,,,0.00,WUHU216HW,2013-08-10 22:24:00,
2013-08-10 15:29:00,74.9,59.1,29.96,North,0,0.9,4.5,58,0.00,,,0.00,WUHU216HW,2013-08-10 22:29:00,
2013-08-10 15:34:00,74.5,58.8,29.96,WNW,293,1.1,4.5,58,0.00,,,0.00,WUHU216HW,2013-08-10 22:34:00,
2013-08-10 15:39:00,74.9,58.6,29.96,SSW,203,4.0,4.0,57,0.00,,,0.00,WUHU216HW,2013-08-10 22:39:00,
2013-08-10 15:44:00,75.1,59.8,29.96,NNW,338,2.5,4.0,59,0.00,,,0.00,WUHU216HW,2013-08-10 22:44:00,
2013-08-10 15:49:00,74.7,59.4,29.96,SSW,203,2.9,2.9,59,0.00,,,0.00,WUHU216HW,2013-08-10 22:49:00,
2013-08-10 15:54:00,74.9,59.1,29.96,WNW,293,1.3,3.1,58,0.00,,,0.00,WUHU216HW,2013-08-10 22:54:00,
2013-08-10 15:59:00,75.2,59.0,29.96,WNW,293,2.9,3.6,57,0.00,,,0.00,WUHU216HW,2013-08-10 22:59:00,
2013-08-10 16:04:00,75.4,59.7,29.96,WSW,248,1.1,3.6,58,0.00,,,0.00,WUHU216HW,2013-08-10 23:04:00,
2013-08-10 16:09:00,75.6,59.3,29.96,West,270,2.7,3.4,57,0.00,,,0.00,WUHU216HW,2013-08-10 23:09:00,
2013-08-10 16:14:00,75.6,60.3,29.96,NNW,338,2.2,2.7,59,0.00,,,0.00,WUHU216HW,2013-08-10 23:14:00,
2013-08-10 16:20:00,74.7,60.4,29.95,WSW,248,2.7,2.7,61,0.00,,,0.00,WUHU216HW,2013-08-10 23:20:00,
2013-08-10 16:25:00,74.5,60.2,29.95,NNW,338,1.1,3.1,61,0.00,,,0.00,WUHU216HW,2013-08-10 23:25:00,
2013-08-10 16:30:00,74.5,60.2,29.95,WNW,293,2.2,3.1,61,0.00,,,0.00,WUHU216HW,2013-08-10 23:30:00,
2013-08-10 16:35:00,74.9,60.1,29.95,WSW,248,1.8,4.0,60,0.00,,,0.00,WUHU216HW,2013-08-10 23:35:00,
2013-08-10 16:40:00,76.0,60.1,29.95,SW,225,2.7,3.6,58,0.00,,,0.00,WUHU216HW,2013-08-10 23:40:00,
2013-08-10 16:45:00,77.6,59.6,29.95,NNW,338,2.5,2.7,54,0.00,,,0.00,WUHU216HW,2013-08-10 23:45:00,
2013-08-10 16:50:00,79.0,59.9,29.95,NW,315,1.1,2.9,52,0.00,,,0.00,WUHU216HW,2013-08-10 23:50:00,
2013-08-10 16:55:00,79.4,59.7,29.95,NNW,338,3.4,3.8,51,0.00,,,0.00,WUHU216HW,2013-08-10 23:55:00,
2013-08-10 17:00:00,78.8,60.2,29.95,West,270,2.5,3.8,53,0.00,,,0.00,WUHU216HW,2013-08-11 00:00:00,
2013-08-10 17:05:00,77.4,59.4,29.95,NNW,338,1.1,4.3,54,0.00,,,0.00,WUHU216HW,2013-08-11 00:05:00,
2013-08-10 17:10:00,77.2,58.8,29.95,NNW,338,2.2,4.3,53,0.00,,,0.00,WUHU216HW,2013-08-11 00:10:00,
2013-08-10 17:15:00,77.0,58.6,29.95,NNW,338,0.7,3.4,53,0.00,,,0.00,WUHU216HW,2013-08-11 00:15:00,
2013-08-10 17:21:00,76.5,58.6,29.95,WSW,248,1.8,3.8,54,0.00,,,0.00,WUHU216HW,2013-08-11 00:21:00,
2013-08-10 17:26:00,77.4,59.0,29.95,NW,315,2.7,3.8,53,0.00,,,0.00,WUHU216HW,2013-08-11 00:26:00,
2013-08-10 17:31:00,78.1,59.6,29.95,North,0,0.4,2.7,53,0.00,,,0.00,WUHU216HW,2013-08-11 00:31:00,
2013-08-10 17:36:00,76.0,58.6,29.95,NW,315,1.3,2.2,55,0.00,,,0.00,WUHU216HW,2013-08-11 00:36:00,
2013-08-10 17:41:00,75.6,58.8,29.96,NW,315,0.9,3.6,56,0.00,,,0.00,WUHU216HW,2013-08-11 00:41:00,
2013-08-10 17:46:00,76.7,58.2,29.95,WSW,248,1.8,3.6,53,0.00,,,0.00,WUHU216HW,2013-08-11 00:46:00,
2013-08-10 17:51:00,77.4,57.9,29.95,NW,315,1.1,3.4,51,0.00,,,0.00,WUHU216HW,2013-08-11 00:51:00,
2013-08-10 17:56:00,76.7,58.2,29.95,West,270,2.5,3.4,53,0.00,,,0.00,WUHU216HW,2013-08-11 00:56:00,
2013-08-10 18:01:00,76.3,58.0,29.95,NNW,338,1.8,3.4,53,0.00,,,0.00,WUHU216HW,2013-08-11 01:01:00,
2013-08-10 18:06:00,76.7,58.8,29.95,SSW,203,2.2,3.6,54,0.00,,,0.00,WUHU216HW,2013-08-11 01:06:00,
2013-08-10 18:11:00,77.2,58.2,29.95,North,0,1.1,3.6,52,0.00,,,0.00,WUHU216HW,2013-08-11 01:11:00,
2013-08-10 18:16:00,75.1,57.8,29.95,WSW,248,1.8,2.9,55,0.00,,,0.00,WUHU216HW,2013-08-11 01:16:00,
2013-08-10 18:22:00,74.5,57.2,29.95,NW,315,2.0,2.7,55,0.00,,,0.00,WUHU216HW,2013-08-11 01:22:00,
2013-08-10 18:27:00,71.6,57.5,29.95,NNW,338,0.4,2.7,61,0.00,,,0.00,WUHU216HW,2013-08-11 01:27:00,
2013-08-10 18:32:00,70.4,56.8,29.95,West,270,1.3,1.6,62,0.00,,,0.00,WUHU216HW,2013-08-11 01:32:00,
2013-08-10 18:37:00,70.0,57.2,29.95,NW,315,1.1,3.4,64,0.00,,,0.00,WUHU216HW,2013-08-11 01:37:00,
2013-08-10 18:42:00,68.9,56.7,29.95,NNW,338,1.1,3.4,65,0.00,,,0.00,WUHU216HW,2013-08-11 01:42:00,
2013-08-10 18:47:00,68.6,56.7,29.96,North,0,1.1,1.3,66,0.00,,,0.00,WUHU216HW,2013-08-11 01:47:00,
2013-08-10 18:52:00,68.4,57.0,29.95,NNW,338,1.6,1.6,67,0.00,,,0.00,WUHU216HW,2013-08-11 01:52:00,
2013-08-10 18:57:00,68.4,57.0,29.95,SW,225,0.7,2.5,67,0.00,,,0.00,WUHU216HW,2013-08-11 01:57:00,
2013-08-10 19:02:00,68.8,57.3,29.95,NW,315,1.1,2.5,67,0.00,,,0.00,WUHU216HW,2013-08-11 02:02:00,
2013-08-10 19:07:00,67.9,56.9,29.95,West,270,1.8,2.5,68,0.00,,,0.00,WUHU216HW,2013-08-11 02:07:00,
2013-08-10 19:12:00,67.0,56.9,29.95,North,0,1.3,2.5,70,0.00,,,0.00,WUHU216HW,2013-08-11 02:12:00,
2013-08-10 19:17:00,66.6,56.9,29.95,NW,315,1.3,1.8,71,0.00,,,0.00,WUHU216HW,2013-08-11 02:17:00,
2013-08-10 19:22:00,65.9,56.6,29.95,NW,315,0.2,1.8,72,0.00,,,0.00,WUHU216HW,2013-08-11 02:22:00,
2013-08-10 19:28:00,65.5,56.6,29.95,WSW,248,1.1,1.1,73,0.00,,,0.00,WUHU216HW,2013-08-11 02:28:00,
2013-08-10 19:33:00,65.5,57.0,29.96,NNW,338,1.1,2.0,74,0.00,,,0.00,WUHU216HW,2013-08-11 02:33:00,
2013-08-10 19:38:00,64.8,56.7,29.96,WSW,248,2.7,2.7,75,0.00,,,0.00,WUHU216HW,2013-08-11 02:38:00,
2013-08-10 19:43:00,64.4,56.7,29.96,NNW,338,0.7,2.7,76,0.00,,,0.00,WUHU216HW,2013-08-11 02:43:00,
2013-08-10 19:48:00,64.1,56.7,29.96,NNW,338,0.7,2.0,77,0.00,,,0.00,WUHU216HW,2013-08-11 02:48:00,
2013-08-10 19:53:00,63.5,56.5,29.96,NW,315,0.4,2.7,78,0.00,,,0.00,WUHU216HW,2013-08-11 02:53:00,
2013-08-10 19:58:00,63.2,56.5,29.96,North,0,0.0,2.7,79,0.00,,,0.00,WUHU216HW,2013-08-11 02:58:00,
2013-08-10 20:03:00,63.0,56.3,29.96,NNW,338,0.2,1.3,79,0.00,,,0.00,WUHU216HW,2013-08-11 03:03:00,
2013-08-10 20:08:00,62.6,56.0,29.96,NW,315,0.9,1.6,79,0.00,,,0.00,WUHU216HW,2013-08-11 03:08:00,
2013-08-10 20:13:00,62.5,55.8,29.96,West,270,1.1,1.8,79,0.00,,,0.00,WUHU216HW,2013-08-11 03:13:00,
2013-08-10 20:18:00,62.3,56.3,29.96,NNW,338,0.2,1.8,81,0.00,,,0.00,WUHU216HW,2013-08-11 03:18:00,
2013-08-10 20:24:00,61.9,56.3,29.96,NW,315,0.0,1.1,82,0.00,,,0.00,WUHU216HW,2013-08-11 03:24:00,
2013-08-10 20:29:00,61.7,56.2,29.96,NNW,338,1.1,1.1,82,0.00,,,0.00,WUHU216HW,2013-08-11 03:29:00,
2013-08-10 20:34:00,61.6,56.1,29.96,WNW,293,0.0,1.3,82,0.00,,,0.00,WUHU216HW,2013-08-11 03:34:00,
2013-08-10 20:39:00,61.7,56.5,29.96,NW,315,0.0,1.3,83,0.00,,,0.00,WUHU216HW,2013-08-11 03:39:00,
2013-08-10 20:45:00,61.7,56.5,29.96,NW,315,0.4,0.9,83,0.00,,,0.00,WUHU216HW,2013-08-11 03:45:00,
2013-08-10 20:50:00,61.6,56.3,29.96,NNW,338,0.2,1.1,83,0.00,,,0.00,WUHU216HW,2013-08-11 03:50:00,
2013-08-10 20:55:00,61.4,56.2,29.96,NNW,338,0.4,1.1,83,0.00,,,0.00,WUHU216HW,2013-08-11 03:55:00,
2013-08-10 21:00:00,61.4,55.9,29.97,WNW,293,0.4,0.4,82,0.00,,,0.00,WUHU216HW,2013-08-11 04:00:00,
2013-08-10 21:01:00,61.4,55.9,29.97,WNW,293,0.0,0.4,82,0.00,,,0.00,WUHU216HW,2013-08-11 04:01:00,
2013-08-10 21:02:00,61.4,55.9,29.97,WNW,293,0.0,0.4,82,0.00,,,0.00,WUHU216HW,2013-08-11 04:02:00,
2013-08-10 21:03:00,61.4,55.9,29.97,WNW,293,0.0,0.4,82,0.00,,,0.00,WUHU216HW,2013-08-11 04:03:00,
2013-08-10 21:08:00,61.6,55.7,29.97,SSE,158,0.7,0.7,81,0.00,,,0.00,WUHU216HW,2013-08-11 04:08:00,
2013-08-10 21:13:00,61.6,56.3,29.97,West,270,0.2,2.2,83,0.00,,,0.00,WUHU216HW,2013-08-11 04:13:00,
2013-08-10 21:18:00,61.6,56.7,29.97,NNW,338,0.0,2.2,84,0.00,,,0.00,WUHU216HW,2013-08-11 04:18:00,
2013-08-10 21:23:00,61.6,56.3,29.97,SW,225,1.1,2.0,83,0.00,,,0.00,WUHU216HW,2013-08-11 04:23:00,
2013-08-10 21:28:00,61.6,56.3,29.98,WSW,248,1.8,2.0,83,0.00,,,0.00,WUHU216HW,2013-08-11 04:28:00,
2013-08-10 21:33:00,61.6,56.3,29.98,West,270,1.3,1.8,83,0.00,,,0.00,WUHU216HW,2013-08-11 04:33:00,
2013-08-10 21:38:00,61.6,56.3,29.98,WSW,248,0.2,1.6,83,0.00,,,0.00,WUHU216HW,2013-08-11 04:38:00,
2013-08-10 21:43:00,61.6,56.3,29.98,SW,225,2.7,2.7,83,0.00,,,0.00,WUHU216HW,2013-08-11 04:43:00,
2013-08-10 21:48:00,61.7,56.5,29.98,WNW,293,0.4,2.7,83,0.00,,,0.00,WUHU216HW,2013-08-11 04:48:00,
2013-08-10 21:53:00,62.5,57.3,29.98,West,270,0.2,0.9,83,0.00,,,0.00,WUHU216HW,2013-08-11 04:53:00,
2013-08-10 21:58:00,63.0,57.4,29.98,NNW,338,0.7,1.8,82,0.00,,,0.00,WUHU216HW,2013-08-11 04:58:00,
2013-08-10 22:04:00,63.0,58.1,29.98,NW,315,0.4,1.8,84,0.00,,,0.00,WUHU216HW,2013-08-11 05:04:00,
2013-08-10 22:09:00,62.8,57.5,29.98,WNW,293,1.1,1.1,83,0.00,,,0.00,WUHU216HW,2013-08-11 05:09:00,
2013-08-10 22:14:00,63.2,58.2,29.98,NNW,338,0.4,1.1,84,0.00,,,0.00,WUHU216HW,2013-08-11 05:14:00,
2013-08-10 22:19:00,63.0,57.7,29.98,WNW,293,0.2,0.9,83,0.00,,,0.00,WUHU216HW,2013-08-11 05:19:00,
2013-08-10 22:24:00,62.8,57.5,29.98,NNW,338,0.0,1.1,83,0.00,,,0.00,WUHU216HW,2013-08-11 05:24:00,
2013-08-10 22:29:00,62.1,56.9,29.98,NNW,338,0.0,1.1,83,0.00,,,0.00,WUHU216HW,2013-08-11 05:29:00,
2013-08-10 22:34:00,62.3,57.3,29.99,NNW,338,0.4,0.9,84,0.00,,,0.00,WUHU216HW,2013-08-11 05:34:00,
2013-08-10 22:39:00,62.3,57.1,29.99,West,270,0.4,0.9,83,0.00,,,0.00,WUHU216HW,2013-08-11 05:39:00,
2013-08-10 22:44:00,62.5,57.3,29.98,NNW,338,0.0,0.9,83,0.00,,,0.00,WUHU216HW,2013-08-11 05:44:00,
2013-08-10 22:49:00,62.5,57.3,29.98,NW,315,1.6,1.6,83,0.00,,,0.00,WUHU216HW,2013-08-11 05:49:00,
2013-08-10 22:54:00,62.5,57.3,29.98,NW,315,0.0,1.6,83,0.00,,,0.00,WUHU216HW,2013-08-11 05:54:00,
2013-08-10 22:59:00,62.6,57.3,29.98,NNW,338,0.4,0.4,83,0.00,,,0.00,WUHU216HW,2013-08-11 05:59:00,
2013-08-10 23:04:00,61.6,56.3,29.98,NNW,338,1.1,1.8,83,0.00,,,0.00,WUHU216HW,2013-08-11 06:04:00,
2013-08-10 23:09:00,61.4,56.9,29.98,NNW,338,0.0,1.8,85,0.00,,,0.00,WUHU216HW,2013-08-11 06:09:00,
2013-08-10 23:15:00,61.7,56.9,29.98,NNW,338,0.0,1.1,84,0.00,,,0.00,WUHU216HW,2013-08-11 06:15:00,
2013-08-10 23:20:00,62.1,57.3,29.98,NNW,338,0.4,0.4,84,0.00,,,0.00,WUHU216HW,2013-08-11 06:20:00,
2013-08-10 23:25:00,62.1,56.9,29.98,WNW,293,0.4,0.7,83,0.00,,,0.00,WUHU216HW,2013-08-11 06:25:00,
2013-08-10 23:30:00,62.1,56.9,29.98,WNW,293,0.0,0.7,83,0.00,,,0.00,WUHU216HW,2013-08-11 06:30:00,
2013-08-10 23:35:00,62.6,57.3,29.98,WNW,293,0.0,0.2,83,0.00,,,0.00,WUHU216HW,2013-08-11 06:35:00,
2013-08-10 23:40:00,63.0,57.4,29.98,NNW,338,0.0,0.4,82,0.00,,,0.00,WUHU216HW,2013-08-11 06:40:00,
2013-08-10 23:46:00,62.8,57.3,29.98,NNW,338,0.0,0.4,82,0.00,,,0.00,WUHU216HW,2013-08-11 06:46:00,
2013-08-10 23:51:00,62.6,56.7,29.98,NNW,338,0.0,0.4,81,0.00,,,0.00,WUHU216HW,2013-08-11 06:51:00,
2013-08-10 23:56:00,62.8,56.9,29.98,NNW,338,0.0,0.0,81,0.00,,,0.00,WUHU216HW,2013-08-11 06:56:00,